TimeCDT,TemperatureF,Dew PointF,Humidity,Sea Level PressureIn,VisibilityMPH,Wind Direction,Wind SpeedMPH,Gust SpeedMPH,PrecipitationIn,Events,Conditions,WindDirDegrees,DateUTC
12:53 AM,21.0,15.1,78,30.29,10.0,NNW,12.7,-,N/A,,Clear,330,2013-03-24 05:53:00
1:53 AM,18.0,12.9,81,30.29,10.0,NW,9.2,-,N/A,,Clear,310,2013-03-24 06:53:00
2:53 AM,16.0,10.9,81,30.29,10.0,NW,8.1,-,N/A,,Clear,320,2013-03-24 07:53:00
3:53 AM,15.1,10.0,80,30.28,10.0,WNW,10.4,-,N/A,,Clear,300,2013-03-24 08:53:00
4:53 AM,15.1,9.0,77,30.26,10.0,NW,12.7,-,N/A,,Clear,310,2013-03-24 09:53:00
5:53 AM,15.1,9.0,77,30.26,10.0,NW,13.8,-,N/A,,Clear,310,2013-03-24 10:53:00
6:53 AM,14.0,8.1,77,30.26,10.0,WNW,11.5,-,N/A,,Clear,300,2013-03-24 11:53:00
7:53 AM,12.9,8.1,81,30.26,10.0,WNW,11.5,-,N/A,,Clear,300,2013-03-24 12:53:00
8:53 AM,16.0,10.0,77,30.25,10.0,NW,11.5,-,N/A,,Clear,310,2013-03-24 13:53:00
9:53 AM,19.0,10.9,71,30.24,10.0,NW,21.9,-,N/A,,Partly Cloudy,320,2013-03-24 14:53:00
10:09 AM,19.4,10.4,68,30.14,10.0,NW,20.7,-,N/A,,Mostly Cloudy,320,2013-03-24 15:09:00
10:53 AM,19.0,12.0,74,30.24,10.0,NW,21.9,28.8,N/A,,Overcast,310,2013-03-24 15:53:00
11:53 AM,21.9,12.9,68,30.23,6.0,NNW,20.7,29.9,0.00,Snow,Light Snow,330,2013-03-24 16:53:00
12:53 PM,23.0,14.0,68,30.22,10.0,NW,20.7,-,0.00,Snow,Light Snow,310,2013-03-24 17:53:00
1:53 PM,24.1,15.1,69,30.22,6.0,NNW,23.0,28.8,0.00,Snow,Light Snow,330,2013-03-24 18:53:00
2:39 PM,24.8,15.8,69,30.12,2.0,NNW,21.9,-,0.00,Snow,Light Snow,340,2013-03-24 19:39:00
2:53 PM,25.0,17.1,72,30.21,2.5,NNW,21.9,-,0.00,Snow,Light Snow,340,2013-03-24 19:53:00
3:04 PM,24.8,15.8,69,30.12,4.0,NNW,20.7,28.8,0.00,Snow,Light Snow,330,2013-03-24 20:04:00
3:53 PM,25.0,17.1,72,30.22,5.0,NNW,20.7,-,0.00,Snow,Light Snow,340,2013-03-24 20:53:00
4:02 PM,24.8,17.6,74,30.12,4.0,NNW,20.7,27.6,0.00,Snow,Light Snow,330,2013-03-24 21:02:00
4:53 PM,26.1,18.0,71,30.22,5.0,NNW,23.0,29.9,0.00,Snow,Light Snow,330,2013-03-24 21:53:00
5:29 PM,26.6,17.6,69,30.13,9.0,NNW,23.0,28.8,0.00,,Overcast,330,2013-03-24 22:29:00
5:42 PM,26.6,17.6,69,30.14,5.0,North,20.7,-,0.00,Snow,Light Snow,350,2013-03-24 22:42:00
5:53 PM,25.0,18.0,75,30.24,3.0,NNW,23.0,-,0.00,Snow,Light Snow,330,2013-03-24 22:53:00
6:09 PM,26.6,17.6,69,30.14,9.0,North,21.9,27.6,0.00,,Overcast,350,2013-03-24 23:09:00
6:26 PM,24.8,19.4,80,30.15,2.5,NNW,18.4,26.5,0.00,Snow,Light Snow,340,2013-03-24 23:26:00
6:35 PM,24.8,17.6,74,30.15,5.0,NNW,21.9,27.6,0.00,Snow,Light Snow,340,2013-03-24 23:35:00
6:53 PM,25.0,17.1,72,30.25,9.0,NNW,23.0,28.8,0.00,,Overcast,340,2013-03-24 23:53:00
7:53 PM,24.1,17.1,75,30.28,10.0,NNW,16.1,-,0.00,,Mostly Cloudy,340,2013-03-25 00:53:00
8:53 PM,23.0,16.0,74,30.29,10.0,NNW,10.4,-,N/A,,Overcast,340,2013-03-25 01:53:00
9:53 PM,23.0,18.0,81,30.30,10.0,NNW,13.8,-,N/A,,Mostly Cloudy,330,2013-03-25 02:53:00
10:31 PM,21.2,17.6,86,30.22,5.0,NNW,11.5,-,0.00,Snow,Light Snow,330,2013-03-25 03:31:00
10:45 PM,21.2,17.6,86,30.22,5.0,NNW,12.7,-,0.00,Snow,Light Snow,330,2013-03-25 03:45:00
10:53 PM,21.9,18.0,85,30.32,7.0,NNW,11.5,-,0.00,Snow,Light Snow,330,2013-03-25 03:53:00
11:17 PM,23.0,19.4,86,30.22,7.0,NNW,15.0,-,0.00,Snow,Light Snow,330,2013-03-25 04:17:00
11:38 PM,23.0,19.4,86,30.22,2.5,NNW,11.5,-,0.00,Snow,Light Snow,340,2013-03-25 04:38:00
11:44 PM,23.0,19.4,86,30.23,2.0,NNW,12.7,-,0.00,Snow,Light Snow,340,2013-03-25 04:44:00
11:53 PM,23.0,19.9,88,30.32,2.5,North,11.5,-,0.00,Snow,Light Snow,350,2013-03-25 04:53:00
11:55 PM,23.0,19.4,86,30.23,2.0,North,13.8,-,0.00,Snow,Light Snow,350,2013-03-25 04:55:00
11:57 PM,23.0,19.4,86,30.23,1.5,North,13.8,-,0.00,Snow,Light Snow,350,2013-03-25 04:57:00